MST,Max TemperatureF,Mean TemperatureF,Min TemperatureF,Max Dew PointF,MeanDew PointF,Min DewpointF,Max Humidity, Mean Humidity, Min Humidity, Max Sea Level PressureIn, Mean Sea Level PressureIn, Min Sea Level PressureIn, Max VisibilityMiles, Mean VisibilityMiles, Min VisibilityMiles, Max Wind SpeedMPH, Mean Wind SpeedMPH, Max Gust SpeedMPH,PrecipitationIn, CloudCover, Events, WindDirDegrees
2012-11-1,72,49,26,37,25,17,92,54,12,30.11,29.97,29.81,10,10,10,17,7,22,0.00,0,,311
2012-11-2,58,41,24,30,27,24,96,54,29,30.17,29.98,29.79,10,10,10,29,8,35,0.00,0,,344
2012-11-3,59,40,20,34,25,17,96,66,30,30.29,30.20,30.12,10,10,10,20,6,28,0.00,0,,208
2012-11-4,65,44,23,31,23,16,92,54,16,30.26,30.18,30.11,10,10,10,23,8,32,0.00,1,,331
2012-11-5,62,45,28,31,28,26,89,61,28,30.30,30.17,30.06,10,10,10,15,6,18,0.00,0,,310
2012-11-6,65,46,27,32,27,24,85,57,24,30.25,30.19,30.11,10,10,10,15,4,18,0.00,0,,2
2012-11-7,72,48,23,31,23,18,92,53,13,30.18,30.01,29.85,10,10,10,17,5,23,0.00,0,,168
2012-11-8,67,46,25,30,24,19,89,45,18,29.99,29.85,29.75,10,10,10,18,9,24,0.00,0,,52
2012-11-9,71,48,25,33,26,20,92,51,15,29.73,29.61,29.47,10,10,10,26,6,36,0.00,0,,193
2012-11-10,59,40,20,37,28,18,100,82,42,29.84,29.60,29.33,10,6,1,33,13,41,0.08,4,Snow,354
2012-11-11,27,13,-2,20,13,-5,96,86,70,30.38,30.00,29.81,10,5,0,15,9,18,0.14,6,Fog-Snow,330
2012-11-12,42,19,-5,21,8,-9,92,70,38,30.51,30.44,30.32,10,10,10,10,3,12,0.00,0,,44
2012-11-13,49,35,20,26,21,14,92,67,29,30.35,30.26,30.18,10,10,10,26,8,32,0.00,1,,339
2012-11-14,51,34,16,28,21,14,92,72,28,30.36,30.24,30.14,10,10,10,14,4,17,0.00,0,,91
2012-11-15,48,33,18,32,24,16,92,74,41,30.45,30.36,30.17,10,10,8,18,8,23,0.00,0,,352
2012-11-16,55,37,18,28,23,19,92,69,30,30.37,30.23,30.08,10,10,10,17,8,22,0.00,0,,157
2012-11-17,63,43,23,30,23,20,92,60,23,30.18,30.08,29.99,10,10,10,18,6,22,0.00,0,,15
2012-11-18,63,42,21,29,23,20,92,60,20,30.12,30.01,29.91,10,10,10,14,5,17,0.00,0,,324
2012-11-19,61,41,21,24,21,17,88,61,21,30.34,30.22,30.07,10,10,10,12,3,18,0.00,0,,323
2012-11-20,65,42,19,26,17,11,92,56,13,30.35,30.20,30.07,10,10,10,18,6,22,0.00,0,,340
2012-11-21,72,47,21,20,14,4,78,36,7,30.09,29.92,29.77,10,10,10,16,7,20,0.00,0,,288
2012-11-22,51,32,12,27,16,8,84,50,31,30.55,30.16,29.78,10,10,10,23,9,28,0.00,0,,347
2012-11-23,48,28,7,15,11,4,87,56,23,30.67,30.49,30.28,10,10,10,20,7,26,0.00,0,,165
2012-11-24,70,44,17,20,10,1,81,41,7,30.24,30.05,29.89,10,10,10,26,6,31,0.00,0,,331
2012-11-25,55,34,12,23,14,9,80,50,17,30.06,29.93,29.80,10,10,10,18,5,25,0.00,0,,144
2012-11-26,33,23,13,25,19,11,100,87,61,30.44,30.29,29.97,10,9,2,8,6,12,0.00,4,,340
2012-11-27,65,36,7,28,11,-16,100,75,4,30.38,30.23,30.07,10,8,0,13,5,17,0.00,2,Fog,288
2012-11-28,57,33,9,17,8,1,88,54,11,30.40,30.22,30.08,10,10,10,14,5,17,0.00,0,,336
2012-11-29,64,39,14,15,9,3,61,38,13,30.16,30.05,29.91,10,10,10,9,4,13,0.00,0,,342
2012-11-30,63,40,17,19,15,8,78,46,13,30.18,29.97,29.79,10,10,10,17,4,21,0.00,0,,171